EDT,Max TemperatureF,Mean TemperatureF,Min TemperatureF,Max Dew PointF,MeanDew PointF,Min DewpointF,Max Humidity, Mean Humidity, Min Humidity, Max Sea Level PressureIn, Mean Sea Level PressureIn, Min Sea Level PressureIn, Max VisibilityMiles, Mean VisibilityMiles, Min VisibilityMiles, Max Wind SpeedMPH, Mean Wind SpeedMPH, Max Gust SpeedMPH,PrecipitationIn, CloudCover, Events, WindDirDegrees
2013-3-1,46,41,36,30,28,26,73,57,48,29.87,29.82,29.77,10,10,10,15,9,21,0.00,6,,303
2013-3-2,42,38,33,28,25,22,65,58,47,29.89,29.86,29.82,10,10,10,15,11,21,0.00,7,,319
2013-3-3,42,36,30,22,21,20,72,54,43,29.91,29.86,29.81,10,10,10,21,12,25,0.00,4,,327
2013-3-4,46,38,30,21,18,15,61,47,29,30.06,29.99,29.92,10,10,10,18,13,26,0.00,1,,303
2013-3-5,48,38,27,41,29,20,93,70,34,30.11,29.97,29.73,10,9,3,20,6,30,0.12,6,Rain,111
2013-3-6,50,44,37,47,39,33,100,89,70,29.83,29.49,29.30,10,6,1,41,19,61,0.85,8,Rain-Snow,318
2013-3-7,48,44,39,34,30,26,76,60,49,30.12,30.01,29.85,10,10,9,29,22,43,0.00,5,Rain,338
2013-3-8,46,42,37,32,29,26,68,57,47,30.19,30.12,30.07,10,10,10,26,18,39,0.00,5,,332
2013-3-9,54,44,34,31,28,20,82,54,28,30.31,30.26,30.19,10,10,10,23,14,29,0.00,0,,352
2013-3-10,52,40,28,42,35,25,93,79,41,30.35,30.31,30.28,10,9,7,10,3,,0.00,4,,90
2013-3-11,64,51,39,49,44,37,96,77,57,30.29,30.17,30.04,10,9,6,17,7,26,0.00,6,Fog,142
2013-3-12,68,60,48,61,55,39,94,88,71,30.03,29.84,29.73,10,8,2,21,11,37,0.74,7,Rain,153
2013-3-13,55,46,39,37,31,26,71,56,39,30.03,29.98,29.92,10,10,10,17,11,24,0.00,4,,357
2013-3-14,50,43,36,26,19,16,57,41,26,30.17,30.10,30.04,10,10,10,22,14,28,0.00,2,,308
2013-3-15,57,44,30,32,25,17,76,47,24,30.15,30.02,29.87,10,10,10,23,6,26,0.00,4,,225
2013-3-16,73,60,48,52,44,33,96,68,44,29.89,29.78,29.63,10,9,2,26,9,34,0.19,6,Rain,232
2013-3-17,46,46,39,52,39,32,96,85,75,30.25,30.07,29.83,10,9,5,18,11,24,0.00,8,,41
2013-3-18,54,44,37,49,41,33,100,89,57,30.25,30.09,29.88,10,4,0,18,10,23,0.14,8,Fog-Rain,41
2013-3-19,64,52,42,46,42,14,100,81,21,29.94,29.82,29.78,10,6,0,17,5,24,0.09,6,Fog-Rain,290
2013-3-20,55,46,39,33,17,10,61,33,18,30.07,29.96,29.81,10,10,10,16,10,22,0.00,4,,261
2013-3-21,42,38,33,31,25,12,82,64,40,29.91,29.77,29.69,10,9,2,23,10,34,0.00,5,Snow,321
2013-3-22,51,38,27,28,16,11,70,42,23,30.03,29.97,29.92,10,10,10,17,11,26,0.00,1,,269
2013-3-23,53,40,27,33,26,20,75,59,28,30.05,29.99,29.94,10,10,10,10,3,,0.00,3,,137
2013-3-24,44,39,34,37,34,31,93,84,65,29.96,29.76,29.59,10,7,2,24,9,32,0.44,7,Rain-Snow,47
2013-3-25,46,42,37,42,35,31,100,79,61,29.72,29.54,29.44,10,8,3,25,11,34,0.10,7,Rain,309
2013-3-26,50,40,33,34,30,27,79,61,48,30.01,29.88,29.74,10,10,10,17,8,23,0.00,5,Rain,305
2013-3-27,54,44,35,30,27,22,76,53,31,30.14,30.07,30.01,10,10,10,20,9,25,0.00,3,,303
2013-3-28,53,44,35,30,27,24,70,52,38,30.23,30.15,30.11,10,10,10,18,9,24,0.00,3,,306
2013-3-29,55,46,36,34,29,26,73,52,35,30.28,30.23,30.18,10,10,10,17,10,24,0.00,3,,307
2013-3-30,62,50,39,39,34,28,86,57,29,30.22,30.19,30.15,10,10,10,14,5,,0.00,4,,133
2013-3-31,66,57,48,54,47,35,89,69,53,30.16,29.94,29.80,10,9,3,16,9,23,0.23,8,Rain,182